Location: Newark
(29.9790°N, 31.1340°E)
Time: 11:24:17
(UTC+00:00)

Vanguard 3 - Pass Details

Date: 18 January 2020
Orbit: 508 x 3263 km, 33.3° (Epoch: 25 February)

Event Time Altitude Azimuth Distance (km) Brightness Sun altitude
Rises 20:21:43 0° 276° (W) 6,608 12.2 -64.7°
Reaches altitude 10° 20:26:44 10° 279° (W) 5,228 11.5 -65.7°
Enters shadow 20:31:26 23° 282° (WNW) 3,873 10.6 -66.7°
